Location: ????
(55.2778°N, 39.2433°E)
Time: 19:45:01
(UTC+00:00)

Envisat - Visible Passes

Search period start: 25 July 2024 00:00
Search period end: 04 August 2024 00:00
Orbit: 762 x 764 km, 98.3° (Epoch: 25 July)

Date Brightness Start Highest point End Pass type
(mag) Time Alt. Az. Time Alt. Az. Time Alt. Az.
25 Jul 4.2 00:12:42 10° NNE 00:17:30 41° E 00:22:17 10° SSE visible
25 Jul 5.1 23:35:49 10° NE 23:39:45 22° E 23:43:40 10° SE visible
26 Jul 5.6 23:00:02 10° ENE 23:01:46 12° E 23:03:31 10° ESE visible
27 Jul 4.5 23:59:37 10° NNE 00:04:12 33° E 00:08:45 10° SSE visible
28 Jul 5.4 23:22:56 10° NE 23:26:22 18° E 23:29:47 10° SE visible
30 Jul 3.9 00:23:36 10° NNE 00:28:33 49° E 00:33:28 10° S visible
30 Jul 4.8 23:46:34 10° NE 23:50:52 27° E 23:55:06 10° SSE visible
31 Jul 5.5 23:10:14 10° NE 23:12:57 14° E 23:15:39 10° ESE visible
02 Aug 4.2 00:10:28 10° NNE 00:15:15 40° E 00:20:01 10° SSE visible
02 Aug 5.1 23:33:36 10° NE 23:37:30 22° E 23:41:21 10° SE visible
03 Aug 5.7 22:57:57 10° ENE 22:59:30 11° E 23:01:02 10° E visible
